Tracking 19644 objects as of 25-Apr-2019
HD Live streaming from Space Station
objects crossing your sky now

METEOR 2-5 DEB

Track METEOR 2-5 DEB now!
10-day predictions


NORAD ID: 35253
Int'l Code: 1979-095U
Perigee: 736.0 km
Apogee: 757.5 km
Inclination: 81.2 °
Period: 99.6 minutes
Semi major axis: 7117 km
RCS: 0.0128 m2 (small)
Launch date: October 31, 1979
Source: Commonwealth of Independent States (former USSR) (CIS)
Launch site: PLESETSK MISSILE AND SPACE COMPLEX (PKMTR)

Note: This is SATELLITE DEBRIS
aabbcc
Your satellite tracking list
Your tracking list is empty




NASA's NSSDC Master Catalog

Two Line Element Set (TLE):
1 35253U 79095U   19111.25990125  .00000945  00000-0  26277-3 0  9999
2 35253  81.1887  40.6014 0015126  74.5713  78.9717 14.45744559788369
Source of the keplerian elements: AFSPC